Goianesia, Brazil
Current Conditions -  °F | °C
As of 5:00 PM on Saturday 25 Oct 2014 (Local Time) from SBAN Reporting Station
Broken Clouds Broken Clouds  
Wind Chill: 72°   Ceiling: 7000
Heat Index: 72°   Visibility: 6mi
Dew Point: 64°   Wind: 5mph
Humidity: 78%   Direction: 140°SE
Pressure: 30"   Gusts: NA
Location:  15.32°S, 49.12°W
Report Text: SBAN 251900Z 14004KT 9999 FEW009 BKN070 22/18 Q1016
Loading
Personal Weather Stations






























Interactive Weather Map
Tropical Storm Tracking
New forecast layout! Learn more

10-Day Weather Forecast

Advertisements
Track Severe Weather on mobile